#timestamp,LO_Frequency,Hit,StdDev 
1503849615.7,286047002.5,N,1.0
1503849635.5,286047002.5,N,1.0
1503849655.4,286047002.8,N,0.9
1503849675.2,286047002.8,N,0.9
1503849695.0,286047000.2,N,1.1
1503849695.9,286047000.2,N,1.1
1503849715.8,286047000.9,N,1.1
1503849735.6,286047001.0,N,1.1
1503849755.4,286047000.9,N,1.0
1503849775.3,286046998.6,N,1.3
1503849795.1,286047000.8,N,1.2
1503849815.8,286047000.7,N,1.2
1503849835.7,286047000.7,N,1.1
1503849855.5,286047000.8,N,1.1
1503849875.3,286047000.3,N,1.1
1503849895.2,286047000.7,N,1.1
1503849915.0,286047000.7,N,1.0
1503849915.9,286047000.7,N,1.0
1503849935.7,286046998.6,N,1.1
1503849955.6,286046998.8,N,1.2
1503849975.4,286046998.2,N,1.3
1503849995.2,286046999.1,N,1.3
1503850015.1,286046996.5,N,1.5
1503850016.0,286046996.5,N,1.6
1503850035.8,286047003.1,N,1.7
1503850055.7,286047004.5,N,1.8
1503850075.5,286047005.8,Y,0.0
1503850095.3,286047001.4,P,0.4
1503850115.2,286047002.3,P,0.7
1503850135.0,286047002.6,P,0.8
1503850135.9,286047002.6,Y,0.0
1503850155.7,286046999.9,P,0.9
1503850175.6,286047000.8,N,0.7
1503850195.4,286047000.9,N,0.6
1503850215.2,286047001.1,N,0.6
1503850235.1,286047000.0,N,0.6
1503850236.0,286047000.0,N,0.6
1503850255.8,286047000.7,N,0.6
1503850275.7,286046999.0,N,0.8
1503850295.5,286046998.2,N,1.0
1503850315.3,286047000.7,N,1.0
1503850335.2,286046998.5,N,1.0
1503850355.9,286046998.5,N,1.1
1503850375.7,286046998.8,N,1.1
1503850395.6,286047001.2,N,1.1
1503850415.4,286046998.8,N,1.1
1503850435.2,286046999.4,N,1.1
1503850455.1,286046999.4,N,1.1
1503850456.0,286046999.4,N,1.0
1503850475.8,286046998.8,N,1.0
1503850495.6,286046999.0,N,1.0
1503850515.5,286046999.1,N,1.0
1503850535.3,286046999.6,N,1.0
1503850555.1,286046999.4,N,1.0
1503850575.9,286046999.5,N,0.9
1503850595.7,286046998.9,N,0.9
1503850615.5,286046999.3,N,0.9
1503850635.4,286046999.3,N,0.9
1503850655.2,286047001.2,N,0.9
1503850675.0,286046998.9,N,0.9
1503850675.9,286046998.9,N,0.9
1503850695.8,286046998.6,N,0.9
1503850715.6,286046998.6,N,0.9
1503850735.4,286046999.4,N,0.8
1503850755.3,286046998.8,N,0.8
1503850775.1,286046999.0,N,0.8
1503850795.8,286046998.8,N,0.7
1503850815.7,286046998.9,N,0.7
1503850835.5,286046999.1,N,0.7
1503850855.4,286046999.1,N,0.7
1503850875.2,286046999.1,N,0.6
1503850895.0,286046999.0,N,0.6
1503850895.9,286046999.0,N,0.6
1503850915.8,286046998.9,N,0.6
1503850935.6,286046999.0,N,0.5
1503850955.4,286046996.5,Y,0.0
1503850975.3,286046999.1,P,0.0
1503850995.1,286046998.3,P,0.4
1503850996.0,286046998.3,P,0.4
1503851015.8,286046998.7,Y,0.0
1503851035.7,286047000.2,P,0.7
1503851055.5,286047000.2,N,0.7
1503851075.3,286047000.0,N,0.6
1503851095.2,286047000.2,N,0.6
1503851115.0,286047000.1,N,0.5
1503851115.9,286047000.1,N,0.5
1503851135.7,286047000.2,N,0.5
1503851155.6,286047000.5,N,0.5
1503851175.4,286046999.7,N,0.5
1503851195.3,286047002.7,Y,0.0
1503851215.1,286047002.7,P,1.4
1503851216.0,286047002.7,N,1.3
1503851235.8,286047002.7,N,1.2
1503851255.7,286043264.9,Y,0.0
1503851275.5,286046998.1,P,2.0
1503851295.3,286046998.4,N,1.8
1503851315.2,286046998.8,N,1.6
1503851335.9,286047001.1,N,1.6
1503851355.7,286046998.2,N,1.5
1503851375.6,286046998.2,N,1.5
1503851395.4,286047001.2,N,1.5
1503851415.2,286047000.8,N,1.5
1503851435.1,286047000.0,N,1.4
1503851436.0,286047000.0,N,1.4
1503851455.8,286047000.4,N,1.3
1503851475.6,286047000.5,N,1.3
1503851495.5,286047001.0,N,1.3
1503851515.3,286047001.1,N,1.3
1503851535.1,286046998.2,N,1.3
1503851555.9,286047000.0,N,1.3
1503851575.7,286047000.6,N,1.2
1503851595.5,286047000.1,N,1.2
1503851615.4,286047000.2,N,1.2
1503851635.2,286046999.7,N,1.1
1503851655.0,286046999.8,N,1.1
1503851655.9,286046999.8,N,1.1
1503851675.8,286047002.0,N,1.2
1503851695.6,286047001.5,N,1.2
1503851715.5,286047001.8,N,1.2
1503851735.3,286047002.6,N,1.3
1503851755.1,286046999.7,N,1.2
1503851775.9,286047000.0,N,1.2
1503851795.7,286047002.0,N,1.2
1503851815.5,286047001.5,N,1.2
1503851835.4,286047001.6,N,1.2
1503851855.2,286047002.1,N,1.2
1503851875.0,286047002.5,N,1.2
1503851875.9,286047002.5,N,1.2
1503851895.8,286047004.0,Y,0.0
1503851915.6,286047001.9,P,0.6
1503851935.4,286047001.5,N,0.5
1503851955.3,286047004.4,P,1.4
1503851975.1,286047002.5,N,1.3
1503851995.8,286047002.6,N,1.2
1503852015.7,286046999.8,N,1.4
1503852035.5,286047002.3,N,1.3
1503852055.3,286047002.3,N,1.2
1503852075.2,286047002.2,N,1.2
1503852095.0,286047001.5,N,1.1
1503852095.9,286047001.5,N,1.1
1503852115.8,286047002.2,N,1.0
1503852135.6,286047002.5,N,1.0
1503852155.4,286047001.8,N,1.0
1503852175.3,286047001.7,N,0.9
1503852195.1,286047001.4,N,0.9
1503852196.0,286047001.4,N,0.9
1503852215.8,286047003.5,Y,0.0
1503852235.7,286047000.2,P,0.8
1503852255.5,286047002.3,N,0.9
1503852275.3,286046999.7,N,1.1
1503852295.2,286047002.8,N,1.2
1503852315.0,286047002.8,N,1.2
1503852315.9,286047002.8,N,1.2
1503852335.7,286047000.1,N,1.3
1503852355.6,286047000.0,N,1.3
1503852375.4,286046999.9,N,1.3
1503852395.3,286047002.8,N,1.3
1503852445.1,286046999.7,E,nan
1503852455.0,286047001.6,N,0.0
1503852455.9,286047001.6,P,0.0
1503852475.8,286047002.6,P,0.5
1503852495.6,286047002.6,Y,0.0
1503852515.4,286047000.9,P,0.5
1503852535.3,286047000.5,N,0.6
1503852555.1,286047000.3,N,0.6
1503852575.8,286046999.8,N,0.7
1503852595.7,286046999.7,N,0.8
1503852615.5,286047002.3,Y,0.0
1503852635.3,286047000.5,P,0.0
1503852655.2,286047000.9,P,0.2
1503852675.0,286046999.9,N,0.4
1503852675.9,286046999.9,N,0.4
1503852695.8,286047000.6,N,0.4
1503852715.6,286047000.1,N,0.4
1503852735.4,286046999.8,N,0.4
1503852755.3,286047000.3,N,0.4
1503852775.1,286047000.2,N,0.3
1503852776.0,286047000.2,N,0.3
1503852795.8,286046999.7,N,0.3
1503852815.7,286047000.2,N,0.3
1503852835.5,286047000.3,N,0.3
1503852855.3,286047000.0,N,0.3
1503852875.2,286047000.0,N,0.3
1503852895.9,286047000.4,N,0.3
1503852915.7,286047000.9,N,0.3
1503852935.6,286047000.0,N,0.3
1503852955.4,286046999.7,N,0.3
1503852975.2,286047001.9,Y,0.0
1503852995.1,286047002.5,P,1.1
1503852996.0,286047002.5,N,1.1
1503853015.8,286047002.6,N,1.0
1503853035.6,286047002.1,N,0.9
1503853055.5,286047002.0,N,0.8
1503853075.3,286047001.5,N,0.8
1503853095.1,286047002.1,N,0.7
1503853115.9,286047004.0,Y,0.0
1503853135.7,286047000.2,P,0.9
1503853155.5,286046999.9,N,0.9
1503853175.4,286047001.0,N,0.8
1503853195.2,286047000.9,N,0.7
